Regional Weather Roundup
Issued by NWS

Home | Current Version | Previous Version | Text Only | Print | Product List | Glossary On
Versions: 1 2 3 4 5 6 7 8 9 10 11 12 13 14 15 16 17 18 19 20 21 22 23 24 25 26 27
000
ASUS42 KFFC 200603
RWRGA
WEATHER ROUNDUP FOR GEORGIA
NATIONAL WEATHER SERVICE PEACHTREE CITY GA
200 AM EDT SUN APR 20 2014

NOTE: "FAIR" INDICATES FEW OR NO CLOUDS BELOW 12,000 FEET WITH NO
SIGNIFICANT WEATHER AND/OR OBSTRUCTIONS TO VISIBILITY.

* = USE WITH CAUTION. THE STATIONS MARKED WITH AN ASTERISK MAY NOT
REPORT WEATHER SUCH AS PRECIPITATION, FOG, OR THUNDER AND ARE NOT
QUALITY CONTROLLED BY NWS.

THE REMARK "TC" DENOTES TEMPERATURE READING IN DEGREES CELSIUS.

GAZ001>058-200700-
NORTH GEORGIA

CITY           SKY/WX    TMP DP  RH WIND       PRES   REMARKS
ATLANTA        MOCLDY    54  43  66 E15       30.18S
6HR MIN TEMP:  53; 6HR MAX TEMP:  58;

ATHENS         CLOUDY    53  43  68 NE13G21   30.19S
6HR MIN TEMP:  51; 6HR MAX TEMP:  54;

CHAMBLEE       CLOUDY    54  40  59 E12G18    30.18S
6HR MIN TEMP:  53; 6HR MAX TEMP:  58;

PEACHTREE CITY CLOUDY    54  46  74 E9        30.18S
6HR MIN TEMP:  54; 6HR MAX TEMP:  57; 6HR PCP:  0.01;

ROME           MOCLDY    53  50  89 CALM      30.17S
6HR MIN TEMP:  53; 6HR MAX TEMP:  64;

WEST ATLANTA   CLOUDY    55  42  61 E12G22    30.17F
6HR MIN TEMP:  54; 6HR MAX TEMP:  57; 6HR PCP: TRACE;

GAINESVILLE    CLOUDY    53  42  66 E9        30.21S
6HR MIN TEMP:  53; 6HR MAX TEMP:  57;

CARTERSVILLE   FAIR      50  45  83 CALM      30.19R
6HR MIN TEMP:  50; 6HR MAX TEMP:  61;



CITY           SKY/WX    TMP DP  RH WIND       PRES   REMARKS
DALTON*        FAIR      50  50 100 CALM      30.18R
MARIETTA       MOCLDY    55  42  60 E10G20    30.18F
$$

GAZ059>098-102>109-200700-
CENTRAL GEORGIA

CITY           SKY/WX    TMP DP  RH WIND       PRES   REMARKS
AUGUSTA-BUSH   CLOUDY    52  48  86 N12       30.14R
6HR MIN TEMP:  52; 6HR MAX TEMP:  56; 6HR PCP:  0.22;

AUGUSTA-DANIEL LGT RAIN  52  49  89 N15       30.15R
6HR MIN TEMP:  52; 6HR MAX TEMP:  56; 6HR PCP:  0.04;

COLUMBUS       CLOUDY    55  48  77 E9        30.15S
6HR MIN TEMP:  55; 6HR MAX TEMP:  60; 6HR PCP: TRACE;

MACON          CLOUDY    53  49  86 NE15      30.14S
6HR MIN TEMP:  53; 6HR MAX TEMP:  56; 6HR PCP: TRACE;

ROBINS AFB     CLOUDY    54  50  86 N8G17     30.13F


CITY           SKY/WX    TMP DP  RH WIND       PRES   REMARKS
LAGRANGE*      CLOUDY    55  47  74 E9        30.17R
SYLVANIA*      CLOUDY    55  52  88 NE10      30.09S
MILLEDGEVILLE* CLOUDY    54  54 100 N3        30.16S
$$

GAZ099>101-110>166-200700-
SOUTH GEORGIA

CITY           SKY/WX    TMP DP  RH WIND       PRES   REMARKS
SAVANNAH       CLOUDY    54  50  86 N13G18    30.05R
6HR MIN TEMP:  54; 6HR MAX TEMP:  58; 6HR PCP:  0.06;

VALDOSTA       CLOUDY    60  55  83 N9        30.06S
6HR MIN TEMP:  60; 6HR MAX TEMP:  61;

ALMA           CLOUDY    56  50  80 N8        30.06F
6HR MIN TEMP:  56; 6HR MAX TEMP:  58;

ST SIMONS      LGT RAIN  56  55  97 N9        30.03S
6HR MIN TEMP:  56; 6HR MAX TEMP:  62; 6HR PCP: TRACE;

ALBANY         CLOUDY    57  51  80 NE8       30.13S
HUNTER AFB     CLOUDY    54  52  92 VRB5      30.03R
MOODY AFB      LGT RAIN  56  56 100 N13       30.06S
BRUNSWICK      CLOUDY    55  55 100 N7        30.04F


CITY           SKY/WX    TMP DP  RH WIND       PRES   REMARKS
BAINBRIDGE*    CLOUDY    59  55  88 NE8       30.11S
MOULTRIE*      CLOUDY    55  55 100 N6        30.10S
VIDALIA*       CLOUDY    54  52  94 N10G16    30.08F
DOUGLAS*       CLOUDY    55  54  94 N9        30.09S
$$



USA.gov is the U.S. government's official web portal to all federal, state and local government web resources and services.